sat.trackr.live / text

‹ back to catalog

STARLINK-36739

NORAD 67802 · 2026-032F

PAYLOAD ACTIVE UNKNOWN

§ Identity

Operator
Country
US
Launch date
2026-02-15
Launch site
AFWTR
Launch vehicle
Mass (kg)
RCS (m²)

Purposes: comms

External: N2YO · Heavens-Above · Gunter

§ Orbital elements

Epoch: 2026-05-25T01:20:36.907008Z

Period
93.90 min
Inclination
97.2852°
Eccentricity
0.0001642
Mean motion
15.33464889 rev/d
Perigee alt
464.4 km
Apogee alt
466.6 km
Semi-major
6,843.6 km
B*
6.1457e-4
RAAN
333.1457°
Arg perigee
108.5443°
Mean anomaly
251.5978°
Rev number
1,666

§ Raw data

STARLINK-367391 67802U 26032F   26145.05598272  .00019831  00000+0  61457-3 0  99992 67802  97.2852 333.1457 0001642 108.5443 251.5978 15.33464889 16669

JSON: /api/v1/satellites/67802 · /tle

For live sub-satellite position, see the globe view (requires WebGL).

§ Visibility from observer

Set your observer location to see the next 7 days of passes ≥ 10°. The values pass through the URL so the page stays shareable.

No JS? Fill the form by hand. The geolocation button needs JavaScript.